Orbital Elements at Epoch 2459200.5 (2020-Dec-17.0) TDB
Reference: JPL 35 (heliocentric ecliptic J2000)
Element | Value | Uncertainty (1-sigma) | Units |
e | .283843556206747 | 4.2226e-08 | |
a | 2.593604587101672 | 1.216e-08 | au |
q | 1.857426637704602 | 1.1171e-07 | au |
i | 16.98311109204045 | 5.5815e-06 | deg |
node | 173.2359158639754 | 1.0646e-05 | deg |
peri | 221.4873565326056 | 1.3209e-05 | deg |
M | 163.479162161155 | 7.8559e-06 | deg |
tp | 2458507.690270987464 (2019-Jan-24.19027099) | 3.1095e-05 | TDB |
period | 1525.647055853193 4.18 | 1.073e-05 2.938e-08 | d yr |
n | .2359654538832221 | 1.6595e-09 | deg/d |
Q | 3.329782536498743 | 1.5612e-08 | au |
|
| | Orbit Determination Parameters
Additional Information
|